IZ3LSV-13 Weather Reports


time (UTC)temp
F
wind
direction
speed
knots
gust
knots
rain 1hr
in
rain 24hr
in
rain mn
in
humidity
%
barometer
mb
20260507112820 79 0 0.0 0.0 0.00 0.00 0.00 1108.0
20260507112315 79 89 0.0 0.0 0.00 0.00 0.00 1108.1
20260507111809 79 37 0.0 0.0 0.00 0.00 0.00 1108.0
20260507111304 80 56 0.0 0.0 0.00 0.00 0.00 1108.1
20260507110758 80 5 0.0 0.0 0.00 0.00 0.00 1108.1
20260507110252 80 19 0.0 0.0 0.00 0.00 0.00 1108.1
20260507105746 80 0 0.0 0.0 0.00 0.00 0.00 1108.2
20260507105241 80 95 0.0 1.7 0.00 0.00 0.00 1108.1
20260507104736 80 21 0.0 1.7 0.00 0.00 0.00 1108.3
20260507104230 80 49 0.0 0.0 0.00 0.00 0.00 1108.2
20260507103725 80 45 0.0 0.0 0.00 0.00 0.00 1108.2
20260507103219 81 29 0.0 0.0 0.00 0.00 0.00 1108.3
20260507102714 81 79 0.0 0.0 0.00 0.00 0.00 1108.3
20260507102209 82 40 0.0 0.0 0.00 0.00 0.00 1108.3
20260507101703 82 56 0.0 0.0 0.00 0.00 0.00 1108.3
20260507101158 82 41 0.0 1.7 0.00 0.00 0.00 1108.4
20260507100652 82 58 0.0 1.7 0.00 0.00 0.00 1108.4
20260507100147 82 45 0.0 1.7 0.00 0.00 0.00 1108.3
20260507095642 81 58 0.0 0.0 0.00 0.00 0.00 1108.5
20260507095136 81 70 0.0 0.0 0.00 0.00 0.00 1108.3
20260507094631 80 89 0.0 0.0 0.00 0.00 0.00 1108.4
20260507094125 80 46 0.0 0.0 0.00 0.00 0.00 1108.3
20260507093620 79 45 0.0 0.0 0.00 0.00 0.00 1108.4
20260507093115 79 45 0.0 0.0 0.00 0.00 0.00 1108.3
20260507092609 79 62 0.0 0.0 0.00 0.00 0.00 1108.3
20260507092104 79 45 0.0 0.0 0.00 0.00 0.00 1108.3
20260507091558 79 134 0.0 0.0 0.00 0.00 0.00 1108.3
20260507091053 79 45 0.0 0.0 0.00 0.00 0.00 1108.3
20260507090547 79 32 0.0 0.0 0.00 0.00 0.00 1108.3
20260507090041 79 0 0.0 0.0 0.00 0.00 0.00 1108.3
20260507085536 79 0 0.0 0.0 0.00 0.00 0.00 1108.3
20260507085030 78 315 0.0 0.0 0.00 0.00 0.00 1108.2
20260507084525 78 329 0.0 0.0 0.00 0.00 0.00 1108.2
20260507084019 77 0 0.0 0.0 0.00 0.00 0.00 1108.2
20260507083514 76 0 0.0 0.0 0.00 0.00 0.00 1108.2
20260507083009 75 0 0.0 0.0 0.00 0.00 0.00 1108.1
20260507082503 75 0 0.0 1.7 0.00 0.00 0.00 1108.2
20260507081958 75 0 0.0 1.7 0.00 0.00 0.00 1108.1
20260507081452 75 327 0.0 0.0 0.00 0.00 0.00 1108.0
20260507080946 74 159 0.0 0.0 0.00 0.00 0.00 1108.0
20260507080441 74 315 0.0 0.0 0.00 0.00 0.00 1108.1
20260507075935 74 315 0.0 0.0 0.00 0.00 0.00 1108.0
20260507075429 75 315 0.0 2.6 0.00 0.00 0.00 1108.0
20260507074923 75 12 0.9 2.6 0.00 0.00 0.00 1108.0
20260507074733 75 276 0.0 0.0 0.00 0.00 0.00 1107.9
20260507074418 75 315 0.0 0.0 0.00 0.00 0.00 1108.0
20260507073912 75 276 0.0 0.0 0.00 0.00 0.00 1107.9
20260507073407 75 270 0.0 0.0 0.00 0.00 0.00 1108.0
20260507072902 75 155 0.0 1.7 0.00 0.00 0.00 1108.0
20260507072356 75 20 0.0 2.6 0.00 0.00 0.00 1108.0
20260507071345 74 351 0.0 2.6 0.00 0.00 0.00 1107.9
20260507070840 73 30 0.0 1.7 0.00 0.00 0.00 1108.0
20260507070334 73 30 0.0 3.5 0.00 0.00 0.00 1107.9
20260507065829 72 33 0.9 3.5 0.00 0.00 0.00 1107.9
20260507065323 72 358 0.0 1.7 0.00 0.00 0.00 1107.9
20260507064817 71 0 0.0 1.7 0.00 0.00 0.00 1107.9
20260507064312 71 46 0.0 0.0 0.00 0.00 0.00 1107.9
20260507063806 71 168 0.0 0.0 0.00 0.00 0.00 1107.8
20260507063301 71 35 0.0 0.0 0.00 0.00 0.00 1107.8
20260507062754 71 332 0.0 0.0 0.00 0.00 0.00 1107.7
20260507062249 71 12 0.0 0.0 0.00 0.00 0.00 1107.8
20260507061744 71 328 0.0 0.0 0.00 0.00 0.00 1107.7
20260507061238 72 356 0.0 0.0 0.00 0.00 0.00 1107.6
20260507060732 72 84 0.0 1.7 0.00 0.00 0.00 1107.5
20260507060226 72 61 0.0 1.7 0.00 0.00 0.00 1107.5
20260507055721 72 54 0.0 1.7 0.00 0.00 0.00 1107.5
20260507055215 72 340 0.0 2.6 0.00 0.00 0.00 1107.3
20260507054709 72 344 0.0 2.6 0.00 0.00 0.00 1107.2
20260507054204 73 64 0.0 0.0 0.00 0.00 0.00 1107.3
20260507053658 74 180 0.0 0.0 0.00 0.00 0.00 1107.1
20260507053153 74 315 0.0 0.0 0.00 0.00 0.00 1107.1
20260507052648 75 315 0.0 0.0 0.00 0.00 0.00 1107.0
20260507052142 72 252 0.0 0.0 0.00 0.00 0.00 1106.9
20260507051637 69 197 0.0 0.0 0.00 0.00 0.00 1106.8
20260507051131 68 13 0.0 0.0 0.00 0.00 0.00 1106.8
20260507050626 68 45 0.0 0.0 0.00 0.00 0.00 1106.6
20260507050120 68 44 0.0 0.0 0.00 0.00 0.00 1106.6
20260507045615 67 0 0.0 0.0 0.00 0.00 0.00 1106.7
20260507045110 67 0 0.0 0.0 0.00 0.00 0.00 1106.6
20260507044604 67 79 0.0 0.0 0.00 0.00 0.00 1106.4
20260507044059 67 3 0.0 0.0 0.00 0.00 0.00 1106.4
20260507043553 66 3 0.0 0.0 0.00 0.00 0.00 1106.3
20260507043048 66 3 0.0 0.0 0.00 0.00 0.00 1106.3
20260507042543 66 1 0.0 0.0 0.00 0.00 0.00 1106.3
20260507042037 66 0 0.0 0.0 0.00 0.00 0.00 1106.3
20260507041532 65 136 0.0 2.6 0.00 0.00 0.00 1106.3
20260507041026 65 200 0.0 2.6 0.00 0.00 0.00 1106.3
20260507040521 65 96 0.0 2.6 0.00 0.00 0.00 1106.2
20260507040016 65 315 0.0 2.6 0.00 0.00 0.00 1106.2
20260507035510 65 15 0.0 2.6 0.00 0.00 0.00 1106.1
20260507035005 65 317 0.0 2.6 0.00 0.00 0.00 1106.0
20260507034459 65 40 0.9 3.5 0.00 0.00 0.00 1106.0
20260507033954 65 55 0.9 5.2 0.00 0.00 0.00 1106.1
20260507033448 65 11 0.9 5.2 0.00 0.00 0.00 1106.1
20260507032942 65 182 0.9 4.3 0.00 0.00 0.00 1106.1
20260507032437 65 34 1.7 4.3 0.00 0.00 0.00 1106.1
20260507031931 65 36 0.0 1.7 0.00 0.00 0.00 1106.1
20260507031426 65 18 0.0 1.7 0.00 0.00 0.00 1106.1
20260507030920 64 268 0.0 2.6 0.00 0.00 0.00 1106.1
20260507030415 64 43 0.0 2.6 0.00 0.00 0.00 1106.2
20260507025908 64 63 0.0 2.6 0.00 0.00 0.00 1106.2
20260507025403 64 37 0.0 2.6 0.00 0.00 0.00 1106.1
20260507024352 64 23 0.0 2.6 0.00 0.00 0.00 1106.0
20260507023847 64 200 0.0 0.0 0.00 0.00 0.00 1106.1
20260507023341 64 0 0.0 0.0 0.00 0.00 0.00 1106.0
20260507022836 64 45 0.0 0.0 0.00 0.00 0.00 1106.0
20260507022331 64 0 0.0 0.0 0.00 0.00 0.00 1106.0
20260507021825 64 0 0.0 0.0 0.00 0.00 0.00 1106.1
20260507021320 64 0 0.0 0.0 0.00 0.00 0.00 1106.1
20260507020814 64 0 0.0 0.0 0.00 0.00 0.00 1106.2
20260507020309 64 0 0.0 0.0 0.00 0.00 0.00 1106.1
20260507015804 64 0 0.0 0.0 0.00 0.00 0.00 1106.1
20260507015258 64 45 0.0 0.0 0.00 0.00 0.00 1106.1
20260507014753 64 45 0.0 0.0 0.00 0.00 0.00 1106.1
20260507014247 64 45 0.0 1.7 0.00 0.00 0.00 1106.1
20260507013742 64 30 0.0 1.7 0.00 0.00 0.00 1105.9
20260507013237 64 14 0.0 1.7 0.00 0.00 0.00 1106.0
20260507012731 64 275 0.0 2.6 0.00 0.00 0.00 1105.9
20260507012226 65 0 0.0 1.7 0.00 0.00 0.00 1105.9
20260507011720 65 14 0.0 1.7 0.00 0.00 0.00 1106.0
20260507011215 65 0 0.0 0.0 0.00 0.00 0.00 1105.9
20260507010709 65 0 0.0 0.0 0.00 0.00 0.00 1106.0
20260507010204 65 315 0.0 0.0 0.00 0.00 0.00 1106.0
20260507005659 65 315 0.0 0.0 0.00 0.00 0.00 1106.0
20260507005153 65 315 0.0 0.0 0.00 0.00 0.00 1106.0
20260507004648 65 315 0.0 0.0 0.00 0.00 0.00 1106.1
20260507004142 65 315 0.0 0.0 0.00 0.00 0.00 1106.0
20260507003637 65 315 0.0 0.0 0.00 0.00 0.00 1105.9
20260507003132 65 315 0.0 0.0 0.00 0.00 0.00 1105.9
20260507002626 65 315 0.0 0.0 0.00 0.00 0.00 1105.8
20260507002121 65 315 0.0 0.0 0.00 0.00 0.00 1105.8
20260507001615 65 315 0.0 0.0 0.00 0.00 0.00 1105.8
20260507001110 65 315 0.0 0.0 0.00 0.00 0.00 1106.0
20260507000605 65 315 0.0 0.0 0.00 0.00 0.00 1105.9
20260507000059 66 315 0.0 0.0 0.00 0.00 0.00 1105.9
20260506235554 66 315 0.0 0.0 0.00 0.00 0.00 1105.9
20260506235048 66 315 0.0 0.0 0.00 0.00 0.00 1106.1
20260506234543 66 315 0.0 0.0 0.00 0.00 0.00 1106.0
20260506234037 66 315 0.0 0.0 0.00 0.00 0.00 1106.0
20260506233532 66 315 0.0 0.0 0.00 0.00 0.00 1106.0
20260506233026 66 315 0.0 0.0 0.00 0.00 0.00 1106.0
20260506232521 66 315 0.0 0.0 0.00 0.00 0.00 1106.1
20260506232016 66 315 0.0 0.0 0.00 0.00 0.00 1106.0
20260506231510 66 315 0.0 0.0 0.00 0.00 0.00 1106.1
20260506231005 66 315 0.0 0.0 0.00 0.00 0.00 1106.0
20260506230500 66 315 0.0 0.0 0.00 0.00 0.00 1106.0
20260506225954 66 315 0.0 0.0 0.00 0.00 0.00 1106.0
20260506225449 66 41 0.0 0.0 0.00 0.00 0.00 1106.1
20260506224943 66 5 0.0 0.0 0.00 0.00 0.00 1106.1
20260506224438 66 0 0.0 0.0 0.00 0.00 0.00 1106.0
20260506223932 66 150 0.0 0.0 0.00 0.00 0.00 1106.1
20260506223427 66 225 0.0 0.0 0.00 0.00 0.00 1106.0
20260506222921 66 149 0.0 0.0 0.00 0.00 0.00 1106.1
20260506222416 66 135 0.0 0.0 0.00 0.00 0.00 1106.2
20260506221405 67 270 0.0 0.0 0.00 0.00 0.00 1106.1
20260506220900 67 289 0.0 0.0 0.00 0.00 0.00 1106.1
20260506220354 67 24 0.0 0.0 0.00 0.00 0.00 1106.0
20260506215849 67 270 0.0 0.0 0.00 0.00 0.00 1106.0
20260506215343 67 270 0.0 0.0 0.00 0.00 0.00 1105.9
20260506214838 67 135 0.0 0.0 0.00 0.00 0.00 1105.9
20260506214333 67 135 0.0 0.0 0.00 0.00 0.00 1106.0
20260506213827 67 135 0.0 0.0 0.00 0.00 0.00 1105.8
20260506213322 67 251 0.0 0.0 0.00 0.00 0.00 1105.9
20260506212816 67 0 0.0 0.0 0.00 0.00 0.00 1106.0
20260506212311 67 0 0.0 0.0 0.00 0.00 0.00 1105.9
20260506211805 67 0 0.0 0.0 0.00 0.00 0.00 1106.0
20260506211300 67 0 0.0 0.0 0.00 0.00 0.00 1105.9
20260506210755 67 0 0.0 0.0 0.00 0.00 0.00 1105.9
20260506210248 67 0 0.0 0.0 0.00 0.00 0.00 1105.9
20260506205743 67 0 0.0 0.0 0.00 0.00 0.00 1105.8
20260506205237 68 0 0.0 0.0 0.00 0.00 0.00 1105.8
20260506204732 68 0 0.0 0.0 0.00 0.00 0.00 1105.9
20260506204227 68 0 0.0 0.0 0.00 0.00 0.00 1105.9
20260506203721 68 0 0.0 0.0 0.00 0.00 0.00 1106.0
20260506203216 68 0 0.0 0.0 0.00 0.00 0.00 1106.0
20260506202709 68 0 0.0 0.0 0.00 0.00 0.00 1105.8
20260506202204 68 0 0.0 0.0 0.00 0.00 0.00 1105.8
20260506201657 68 0 0.0 0.0 0.00 0.00 0.00 1105.8
20260506201152 68 0 0.0 0.0 0.00 0.00 0.00 1105.9
20260506200646 68 0 0.0 0.0 0.00 0.00 0.00 1105.8
20260506200141 68 0 0.0 0.0 0.00 0.00 0.00 1105.8
20260506195636 68 0 0.0 0.0 0.00 0.00 0.00 1105.7
20260506195130 68 0 0.0 0.0 0.00 0.00 0.00 1105.7
20260506194625 69 0 0.0 0.0 0.00 0.00 0.00 1105.7
20260506194120 69 0 0.0 0.0 0.00 0.00 0.00 1105.7
20260506193614 69 0 0.0 0.0 0.00 0.00 0.00 1105.7
20260506193109 69 0 0.0 0.0 0.00 0.00 0.00 1105.6
20260506192603 69 0 0.0 0.0 0.00 0.00 0.00 1105.6
20260506192058 69 0 0.0 0.0 0.00 0.00 0.00 1105.4
20260506191552 69 0 0.0 0.0 0.00 0.00 0.00 1105.5
20260506191047 69 0 0.0 0.0 0.00 0.00 0.00 1105.4
20260506190542 69 0 0.0 0.0 0.00 0.00 0.00 1105.3
20260506190036 70 0 0.0 0.0 0.00 0.00 0.00 1105.2
20260506185531 70 315 0.0 0.0 0.00 0.00 0.00 1105.2
20260506185025 70 315 0.0 0.0 0.00 0.00 0.00 1105.0
20260506184520 70 315 0.0 0.0 0.00 0.00 0.00 1104.8
20260506184015 70 315 0.0 0.0 0.00 0.00 0.00 1104.9
20260506183509 70 315 0.0 0.0 0.00 0.00 0.00 1104.9
20260506183003 71 134 0.0 0.0 0.00 0.00 0.00 1105.0
20260506182457 71 134 0.0 0.0 0.00 0.00 0.00 1104.9
20260506181952 71 134 0.0 0.0 0.00 0.00 0.00 1104.9
20260506181446 71 134 0.0 0.0 0.00 0.00 0.00 1104.9
20260506180941 71 134 0.0 0.0 0.00 0.00 0.00 1104.9
20260506180436 72 134 0.0 0.0 0.00 0.00 0.00 1104.8
20260506175930 72 134 0.0 0.0 0.00 0.00 0.00 1104.8
20260506175425 72 134 0.0 0.0 0.00 0.00 0.00 1104.5
20260506174414 72 134 0.0 0.0 0.00 0.00 0.00 1104.6
20260506173909 72 134 0.0 0.0 0.00 0.00 0.00 1104.5
20260506173403 72 118 0.0 0.0 0.00 0.00 0.00 1104.5
20260506172858 72 89 0.0 0.0 0.00 0.00 0.00 1104.4
20260506172352 72 89 0.0 0.0 0.00 0.00 0.00 1104.4
20260506171847 72 89 0.0 0.0 0.00 0.00 0.00 1104.4
20260506171341 72 100 0.0 0.0 0.00 0.00 0.00 1104.4
20260506170836 73 179 0.0 0.0 0.00 0.00 0.00 1104.4
20260506170331 73 179 0.0 0.0 0.00 0.00 0.00 1104.4
20260506165825 73 179 0.0 0.0 0.00 0.00 0.00 1104.6
20260506165320 73 89 0.0 0.0 0.00 0.00 0.00 1104.5
20260506164814 73 89 0.0 0.0 0.00 0.00 0.00 1104.6
20260506164309 73 89 0.0 0.0 0.00 0.00 0.00 1104.6
20260506163804 73 89 0.0 0.0 0.00 0.00 0.00 1104.7
20260506163258 73 89 0.0 0.0 0.00 0.00 0.00 1104.7
20260506162753 73 89 0.0 0.0 0.00 0.00 0.00 1104.7
20260506162247 73 89 0.0 0.0 0.00 0.00 0.00 1104.6
20260506161742 74 89 0.0 0.0 0.00 0.00 0.00 1104.7
20260506161236 74 89 0.0 0.0 0.00 0.00 0.00 1104.8
20260506160731 74 89 0.0 0.0 0.00 0.00 0.00 1104.7
20260506160226 74 89 0.0 0.0 0.00 0.00 0.00 1104.5
20260506155720 74 89 0.0 0.0 0.00 0.00 0.00 1104.6
20260506155215 74 89 0.0 0.0 0.00 0.00 0.00 1104.6
20260506154709 73 89 0.0 0.0 0.00 0.00 0.00 1104.6
20260506154204 73 315 0.0 0.0 0.00 0.00 0.00 1104.6
20260506153659 73 315 0.0 0.0 0.00 0.00 0.00 1104.6
20260506153153 73 45 0.0 0.0 0.00 0.00 0.00 1104.5
20260506152648 73 179 0.0 0.0 0.00 0.00 0.00 1104.6
20260506152142 73 334 0.0 0.0 0.00 0.00 0.00 1104.6
20260506151637 72 184 0.0 0.0 0.00 0.00 0.00 1104.7
20260506151132 72 134 0.0 0.0 0.00 0.00 0.00 1104.8
20260506150626 72 319 0.0 0.0 0.00 0.00 0.00 1104.7
20260506150121 72 236 0.0 0.0 0.00 0.00 0.00 1104.8
20260506145615 72 76 0.0 0.0 0.00 0.00 0.00 1104.8
20260506145110 73 257 0.0 0.0 0.00 0.00 0.00 1105.0
20260506144604 73 45 0.0 0.0 0.00 0.00 0.00 1104.9
20260506144059 73 45 0.0 0.0 0.00 0.00 0.00 1104.9
20260506143554 73 45 0.0 0.0 0.00 0.00 0.00 1105.1
20260506143048 73 45 0.0 0.0 0.00 0.00 0.00 1105.0
20260506142543 74 270 0.0 0.0 0.00 0.00 0.00 1104.7
20260506142038 74 270 0.0 0.0 0.00 0.00 0.00 1104.7
20260506141532 75 227 0.0 0.0 0.00 0.00 0.00 1104.7
20260506141026 75 315 0.0 0.0 0.00 0.00 0.00 1104.7
20260506140520 76 189 0.0 0.0 0.00 0.00 0.00 1104.9
20260506140015 76 179 0.0 0.0 0.00 0.00 0.00 1104.8
20260506135509 77 187 0.0 0.0 0.00 0.00 0.00 1104.8
20260506135004 78 315 0.0 0.0 0.00 0.00 0.00 1104.9
20260506134459 79 17 0.0 0.0 0.00 0.00 0.00 1105.0
20260506133953 79 134 0.0 0.0 0.00 0.00 0.00 1105.0
20260506133448 80 134 0.0 0.0 0.00 0.00 0.00 1105.0
20260506132942 80 134 0.0 0.0 0.00 0.00 0.00 1105.0
20260506132437 80 0 0.0 0.0 0.00 0.00 0.00 1105.0
20260506131425 79 41 0.0 0.0 0.00 0.00 0.00 1105.1
20260506130920 79 344 0.0 0.0 0.00 0.00 0.00 1105.2
20260506130414 78 134 0.0 0.0 0.00 0.00 0.00 1105.4
20260506125909 77 0 0.0 0.0 0.00 0.00 0.00 1105.5
20260506125404 77 0 0.0 0.0 0.00 0.00 0.00 1105.5
20260506124858 77 45 0.0 0.0 0.00 0.00 0.00 1105.5
20260506124353 77 45 0.0 0.0 0.00 0.00 0.00 1105.6
20260506123847 77 162 0.0 0.0 0.00 0.00 0.00 1105.7
20260506123342 76 179 0.0 0.0 0.00 0.00 0.00 1105.6
20260506122837 77 217 0.0 0.0 0.00 0.00 0.00 1105.8
20260506122331 77 314 0.0 0.0 0.00 0.00 0.00 1105.7
20260506121826 78 234 0.0 0.0 0.00 0.00 0.00 1105.8
20260506121320 79 47 0.0 0.0 0.00 0.00 0.00 1105.8
20260506120815 79 45 0.0 0.0 0.00 0.00 0.00 1105.8
20260506120310 79 45 0.0 0.0 0.00 0.00 0.00 1105.7
20260506115804 79 218 0.0 0.0 0.00 0.00 0.00 1105.8
20260506115259 80 134 0.0 0.0 0.00 0.00 0.00 1105.8
20260506114753 80 134 0.0 0.0 0.00 0.00 0.00 1105.9
20260506114248 79 134 0.0 0.0 0.00 0.00 0.00 1105.8
20260506113742 79 82 0.0 0.0 0.00 0.00 0.00 1105.8
20260506113237 79 0 0.0 0.0 0.00 0.00 0.00 1105.9